Location: Bothwell
(42.3833°S, 147.0000°E)
Time: 12:45:35
(UTC+11:00)

OBJECT D - Pass Details

Date: 18 November 2025
Orbit: 437 x 585 km, 63.5° (Epoch: 12 December)

Event Time Altitude Azimuth Distance (km) Brightness Sun altitude
Exits shadow 04:09:01 - 9° (N) 2,051 ? -14.2°
Reaches altitude 10° 04:09:34 10° 13° (NNE) 1,875 ? -14.2°
Maximum altitude 04:12:52 23° 65° (ENE) 1,240 ? -13.7°
Drops below altitude 10° 04:16:08 10° 116° (ESE) 1,837 ? -13.3°
Sets 04:18:39 0° 131° (SE) 2,710 ? -12.9°
